SV1DH Markopoulo Mesogaias GR current weather conditions

sailwx.info

Wind from 022 at 12 knots gusting 19

Air temperature 10.6° C
Dewpoint -1.5° C

Last reported at 2018-Jan-22 10:10 UTC.
Time now 2018-Jan-22 10:43 UTC

Location: N 37°55' E 024°02'.
View on Google Maps.

See reports from other nearby stations

  
Tides and Currents Weather Stations Pressure Air Temp Water Temp Dewpoint Dewpoint Depression Visibility Wind Speed Wind Dir Waves Ship Positions
date/time (UTC)wind fromknots sea level pressurealtimeterstation pressurevisibilityair tempwater tempwave heightnotes
2018-Jan-22 10:10 022 12 gusting 19 10.6
2018-Jan-22 10:05 022 13 gusting 25 10.6
2018-Jan-22 10:00 032 13 gusting 24 10.6
2018-Jan-22 09:55 076 8 gusting 24 10.6
2018-Jan-22 09:50 068 16 gusting 19 10.6
2018-Jan-22 09:45 043 11 gusting 20 10.6
2018-Jan-22 09:40 047 14 gusting 20 10.6
2018-Jan-22 09:35 034 14 gusting 20 10.6
2018-Jan-22 09:30 032 10 gusting 20 10.6
2018-Jan-22 09:25 066 8 gusting 18 10.6
2018-Jan-22 09:20 082 6 gusting 14 10.6
2018-Jan-22 09:15 033 8 gusting 20 10.6
2018-Jan-22 09:10 022 11 gusting 20 10.6
2018-Jan-22 09:05 090 15 gusting 19 10.6
2018-Jan-22 09:00 022 14 gusting 19 10.6
2018-Jan-22 08:55 031 11 gusting 18 10.0
2018-Jan-22 08:50 022 13 gusting 19 10.6
2018-Jan-22 08:45 022 10 gusting 19 10.0
2018-Jan-22 08:40 071 6 gusting 13 10.0
2018-Jan-22 08:35 022 3 gusting 14 10.0
2018-Jan-22 08:30 063 6 gusting 14 10.0
2018-Jan-22 08:25 022 11 gusting 19 10.0
2018-Jan-22 08:20 022 11 gusting 18 10.0
2018-Jan-22 08:15 022 11 gusting 15 10.0
2018-Jan-22 08:10 022 12 gusting 18 10.0
2018-Jan-22 08:05 022 10 gusting 19 10.0
2018-Jan-22 08:00 022 16 gusting 19 10.0
2018-Jan-22 07:55 022 10 gusting 17 10.0
2018-Jan-22 07:50 031 12 gusting 17 9.4
2018-Jan-22 07:45 022 10 gusting 19 10.0
2018-Jan-22 07:40 022 11 gusting 17 9.4
2018-Jan-22 07:35 033 13 gusting 21 9.4
2018-Jan-22 07:30 044 16 gusting 22 9.4
2018-Jan-22 07:25 032 8 gusting 17 8.9
2018-Jan-22 07:20 022 10 gusting 19 8.9
2018-Jan-22 07:15 022 8 gusting 12 8.9
2018-Jan-22 07:10 022 7 gusting 15 8.9
2018-Jan-22 07:05 022 8 gusting 13 8.9
2018-Jan-22 06:55 080 2 gusting 10 8.9
2018-Jan-22 06:50 090 8.9
2018-Jan-22 06:45 022 1 gusting 6 9.4
2018-Jan-22 06:40 090 4 gusting 14 9.4
2018-Jan-22 06:35 022 12 gusting 20 9.4
2018-Jan-22 06:30 022 16 gusting 20 9.4
2018-Jan-22 06:25 032 17 gusting 19 9.4
2018-Jan-22 06:20 037 9 gusting 15 10.0
2018-Jan-22 06:15 022 10 gusting 13 10.0
2018-Jan-22 06:10 031 13 gusting 19 10.0
2018-Jan-22 06:05 043 11 gusting 15 10.6
2018-Jan-22 06:00 041 12 gusting 20 10.6
2018-Jan-22 05:55 022 11 gusting 15 10.6
2018-Jan-22 05:50 022 9 gusting 14 10.6
2018-Jan-22 05:45 067 9 gusting 15 10.6
2018-Jan-22 05:40 022 13 gusting 15 11.1
2018-Jan-22 05:35 022 4 gusting 10 10.6
2018-Jan-22 05:30 022 4 gusting 8 10.6
2018-Jan-22 05:25 022 2 gusting 7 10.6
2018-Jan-22 05:20 090 10.6
2018-Jan-22 05:15 090 10.6
2018-Jan-22 05:10 090 10.6
2018-Jan-22 05:05 090 10.6
2018-Jan-22 04:55 090 10.6
2018-Jan-22 04:50 090 10.6
2018-Jan-22 04:45 090 10.6
2018-Jan-22 04:40 090 10.6
2018-Jan-22 04:35 090 10.6
2018-Jan-22 04:30 090 10.6
2018-Jan-22 04:25 090 10.6
2018-Jan-22 04:20 090 10.6
2018-Jan-22 04:15 090 10.6
2018-Jan-22 04:10 090 10.6
2018-Jan-22 04:05 090 10.6
2018-Jan-22 04:00 090 11.1
2018-Jan-22 03:55 090 11.1
2018-Jan-22 03:50 112 11.1
2018-Jan-22 03:45 112 11.1
2018-Jan-22 03:40 090 11.1
2018-Jan-22 03:35 090 11.1
2018-Jan-22 03:30 090 11.1
2018-Jan-22 03:25 090 0 gusting 5 11.1
2018-Jan-22 03:20 090 11.1
2018-Jan-22 03:15 090 0 gusting 1 11.1
2018-Jan-22 03:10 090 10.6
2018-Jan-22 03:05 180 10.6
2018-Jan-22 03:00 180 10.6
2018-Jan-22 02:55 180 10.6
2018-Jan-22 02:50 180 10.6
2018-Jan-22 02:45 180 10.6
2018-Jan-22 02:40 180 10.6
2018-Jan-22 02:35 180 10.6
2018-Jan-22 02:30 180 10.6
2018-Jan-22 02:25 180 10.6
2018-Jan-22 02:20 180 10.6
2018-Jan-22 02:15 180 10.6
2018-Jan-22 02:10 180 10.6
2018-Jan-22 02:05 180 10.6
2018-Jan-22 02:00 180 10.6
2018-Jan-22 01:55 180 10.6
2018-Jan-22 01:50 180 10.6
2018-Jan-22 01:45 180 10.6
2018-Jan-22 01:40 180 10.6
2018-Jan-22 01:35 180 10.6
2018-Jan-22 01:30 180 11.1
2018-Jan-22 01:25 180 11.1
2018-Jan-22 01:20 180 11.1
2018-Jan-22 01:15 180 11.1
2018-Jan-22 01:10 180 11.1
2018-Jan-22 01:05 180 11.1
2018-Jan-22 01:00 180 11.1
2018-Jan-22 00:55 180 11.1
2018-Jan-22 00:50 180 11.1
2018-Jan-22 00:45 180 11.1
2018-Jan-22 00:40 180 11.1
2018-Jan-22 00:35 180 11.7
2018-Jan-22 00:30 180 11.7
2018-Jan-22 00:25 180 11.7
2018-Jan-22 00:20 180 11.7
2018-Jan-22 00:15 180 11.7
2018-Jan-22 00:10 180 11.7
2018-Jan-22 00:05 180 11.7
2018-Jan-22 00:00 180 0 gusting 1 12.2
2018-Jan-21 23:55 180 12.2
2018-Jan-21 23:50 180 0 gusting 2 12.2
2018-Jan-21 23:45 180 12.2
2018-Jan-21 23:40 112 12.2
2018-Jan-21 23:35 112 12.2
2018-Jan-21 23:30 180 12.2
2018-Jan-21 23:25 180 12.2
2018-Jan-21 23:20 112 12.2
2018-Jan-21 23:15 180 12.8
2018-Jan-21 23:10 090 12.8
2018-Jan-21 23:05 146 12.8
2018-Jan-21 23:00 112 12.8
2018-Jan-21 22:55 090 12.8
2018-Jan-21 22:50 180 12.8
2018-Jan-21 22:45 180 12.8
2018-Jan-21 22:40 112 12.8
2018-Jan-21 22:35 180 0 gusting 5 12.8
2018-Jan-21 22:30 180 0 gusting 6 12.8
2018-Jan-21 22:25 180 12.8
2018-Jan-21 22:20 180 12.8
2018-Jan-21 22:15 180 12.8
2018-Jan-21 22:10 180 12.8
2018-Jan-21 22:05 180 12.8
2018-Jan-21 22:00 180 12.8
2018-Jan-21 21:55 180 12.8
2018-Jan-21 21:50 180 0 gusting 4 13.3
2018-Jan-21 21:45 180 13.3
2018-Jan-21 21:40 180 13.3
2018-Jan-21 21:35 180 13.3
2018-Jan-21 21:30 180 13.3
2018-Jan-21 21:25 180 13.3
2018-Jan-21 21:20 112 13.3
2018-Jan-21 21:15 112 13.3
2018-Jan-21 21:10 112 13.3
2018-Jan-21 21:05 180 1 gusting 7 13.3
2018-Jan-21 20:55 112 13.3
2018-Jan-21 20:50 180 13.3
2018-Jan-21 20:45 180 0 gusting 6 13.3
2018-Jan-21 20:40 180 13.3
2018-Jan-21 20:35 180 13.9
2018-Jan-21 20:30 022 13.9
2018-Jan-21 20:25 180 13.9
2018-Jan-21 20:20 180 0 gusting 2 13.9
2018-Jan-21 20:15 180 0 gusting 2 13.9
2018-Jan-21 20:10 090 13.9
2018-Jan-21 20:05 090 13.9
2018-Jan-21 20:00 090 0 gusting 6 14.4
2018-Jan-21 19:55 022 0 gusting 2 14.4
2018-Jan-21 19:50 046 14.4
2018-Jan-21 19:45 090 0 gusting 11 14.4
2018-Jan-21 19:40 175 0 gusting 11 14.4
2018-Jan-21 19:35 180 0 gusting 5 14.4
2018-Jan-21 19:30 043 14.4
2018-Jan-21 19:25 093 2 gusting 6 14.4
2018-Jan-21 19:20 100 0 gusting 4 14.4
2018-Jan-21 19:15 153 0 gusting 8 14.4
2018-Jan-21 19:10 112 14.4
2018-Jan-21 19:05 112 0 gusting 4 14.4
2018-Jan-21 19:00 180 14.4
2018-Jan-21 18:55 150 0 gusting 11 14.4
2018-Jan-21 18:50 112 0 gusting 10 14.4
2018-Jan-21 18:45 022 2 gusting 6 14.4
2018-Jan-21 18:40 090 14.4
2018-Jan-21 18:35 022 0 gusting 5 14.4
2018-Jan-21 18:30 090 2 gusting 8 14.4
2018-Jan-21 18:25 022 14.4
2018-Jan-21 18:20 022 15.0
2018-Jan-21 18:15 022 0 gusting 2 15.0
2018-Jan-21 18:10 175 15.0
2018-Jan-21 18:05 180 0 gusting 2 15.0
2018-Jan-21 18:00 112 1 gusting 4 15.0
2018-Jan-21 17:55 145 0 gusting 4 15.0
2018-Jan-21 17:50 180 0 gusting 2 15.0
2018-Jan-21 17:45 180 1 gusting 5 15.0
2018-Jan-21 17:40 112 14.4
2018-Jan-21 17:35 022 15.0
2018-Jan-21 17:30 022 15.0
2018-Jan-21 17:25 022 0 gusting 6 15.0
2018-Jan-21 17:20 022 15.0
2018-Jan-21 17:15 022 0 gusting 4 15.0
2018-Jan-21 17:10 022 0 gusting 4 15.0
2018-Jan-21 17:05 022 15.0
2018-Jan-21 17:00 180 0 gusting 5 15.0
2018-Jan-21 16:55 022 15.0
2018-Jan-21 16:50 022 1 gusting 5 15.0
2018-Jan-21 16:45 022 1 gusting 2 15.0
2018-Jan-21 16:40 098 0 gusting 6 15.0
2018-Jan-21 16:35 022 15.0
2018-Jan-21 16:30 180 1 gusting 6 15.0
2018-Jan-21 16:25 041 0 gusting 6 15.0
2018-Jan-21 16:20 057 1 gusting 4 15.0
2018-Jan-21 16:15 180 15.0
2018-Jan-21 16:10 180 1 gusting 6 15.0
2018-Jan-21 16:05 028 2 gusting 7 15.0
2018-Jan-21 15:55 022 1 gusting 8 15.0
2018-Jan-21 15:50 022 1 gusting 6 15.0
2018-Jan-21 15:45 180 2 gusting 8 15.6
2018-Jan-21 15:40 027 2 gusting 6 15.6
2018-Jan-21 15:35 112 2 gusting 12 15.6
2018-Jan-21 15:30 180 2 gusting 12 15.6
2018-Jan-21 15:25 135 4 gusting 10 15.6
2018-Jan-21 15:20 174 2 gusting 6 15.6
2018-Jan-21 15:15 164 2 gusting 6 15.6
2018-Jan-21 15:10 142 2 gusting 10 15.6
2018-Jan-21 15:05 153 3 gusting 6 15.6
2018-Jan-21 15:00 173 2 gusting 6 16.1
2018-Jan-21 14:55 180 4 gusting 7 16.1
2018-Jan-21 14:50 180 1 gusting 6 16.1
2018-Jan-21 14:45 180 3 gusting 7 16.1
2018-Jan-21 14:40 175 2 gusting 13 16.1
2018-Jan-21 14:35 154 6 gusting 11 16.1
2018-Jan-21 14:30 173 2 gusting 7 16.1
2018-Jan-21 14:25 165 1 gusting 13 16.1
2018-Jan-21 14:20 131 3 gusting 7 16.1
2018-Jan-21 14:15 165 0 gusting 4 16.1
2018-Jan-21 14:10 180 0 gusting 5 16.1
2018-Jan-21 14:05 112 0 gusting 4 16.1
2018-Jan-21 14:00 131 4 gusting 6 16.7
2018-Jan-21 13:55 160 0 gusting 4 16.1
2018-Jan-21 13:50 078 1 gusting 5 16.1
2018-Jan-21 13:45 180 16.7
2018-Jan-21 13:40 141 1 gusting 6 16.1
2018-Jan-21 13:35 180 2 gusting 6 16.7
2018-Jan-21 13:30 144 3 gusting 6 16.7
2018-Jan-21 13:25 168 4 gusting 7 16.7
2018-Jan-21 13:20 162 3 gusting 6 16.7
2018-Jan-21 13:15 124 2 gusting 6 16.7
2018-Jan-21 13:10 134 2 gusting 6 17.2
2018-Jan-21 13:05 151 2 gusting 6 17.2
2018-Jan-21 13:00 159 5 gusting 7 17.2
2018-Jan-21 12:55 127 4 gusting 7 17.2
2018-Jan-21 12:50 167 4 gusting 10 17.2
2018-Jan-21 12:45 167 3 gusting 6 17.2
2018-Jan-21 12:40 151 3 gusting 10 17.2
2018-Jan-21 12:35 153 2 gusting 11 17.2
2018-Jan-21 12:30 166 2 gusting 11 17.2
2018-Jan-21 12:25 143 2 gusting 13 16.7
2018-Jan-21 12:20 180 4 gusting 10 16.7
2018-Jan-21 12:15 180 5 gusting 12 17.2
2018-Jan-21 12:10 170 4 gusting 11 17.2
2018-Jan-21 12:05 180 3 gusting 11 17.2
2018-Jan-21 11:55 112 4 gusting 6 17.2
2018-Jan-21 11:50 158 4 gusting 7 17.2
2018-Jan-21 11:45 116 4 gusting 8 17.8
2018-Jan-21 11:40 144 2 gusting 7 17.8
2018-Jan-21 11:35 112 2 gusting 6 17.8
2018-Jan-21 11:30 180 2 gusting 6 17.8
2018-Jan-21 11:25 172 5 gusting 10 17.8
2018-Jan-21 11:20 145 5 gusting 11 17.8
2018-Jan-21 11:15 124 4 gusting 8 17.8
2018-Jan-21 11:10 162 2 gusting 6 18.3
2018-Jan-21 11:05 097 2 gusting 6 18.3
2018-Jan-21 11:00 128 5 gusting 6 18.3
2018-Jan-21 10:55 152 2 gusting 8 18.3
2018-Jan-21 10:50 124 4 gusting 7 18.3
2018-Jan-21 10:45 110 2 gusting 10 18.3
2018-Jan-21 10:40 180 1 gusting 6 18.3
2018-Jan-21 10:35 180 4 gusting 8 18.3
2018-Jan-21 10:30 142 4 gusting 11 17.8
2018-Jan-21 10:25 124 3 gusting 7 18.3
2018-Jan-21 10:20 163 5 gusting 7 17.8
2018-Jan-21 10:15 103 1 gusting 7 17.8
2018-Jan-21 10:10 155 1 gusting 10 17.8
2018-Jan-21 10:05 112 4 gusting 8 17.2
2018-Jan-21 10:00 120 5 gusting 8 17.2
2018-Jan-21 09:55 177 2 gusting 7 17.2
2018-Jan-21 09:50 180 0 gusting 7 16.7
2018-Jan-21 09:45 121 4 gusting 8 16.7
2018-Jan-21 09:40 174 4 gusting 11 16.7
2018-Jan-21 09:35 180 3 gusting 10 16.7
2018-Jan-21 09:30 160 1 gusting 6 16.7
2018-Jan-21 09:25 166 0 gusting 4 16.1
2018-Jan-21 09:20 120 0 gusting 4 16.1
2018-Jan-21 09:15 112 15.6
2018-Jan-21 09:10 121 3 gusting 6 15.6
2018-Jan-21 09:05 112 1 gusting 4 15.6
2018-Jan-21 09:00 180 15.6
2018-Jan-21 08:55 170 0 gusting 5 15.6
2018-Jan-21 08:50 168 0 gusting 2 15.6
2018-Jan-21 08:45 133 15.6
2018-Jan-21 08:40 090 0 gusting 2 15.6
2018-Jan-21 08:35 175 15.6
2018-Jan-21 08:30 150 0 gusting 2 15.6
2018-Jan-21 08:25 022 15.0
2018-Jan-21 08:20 119 0 gusting 4 15.0
2018-Jan-21 08:15 022 15.0
2018-Jan-21 08:10 073 0 gusting 2 15.0
2018-Jan-21 08:05 109 15.0
2018-Jan-21 08:00 122 1 gusting 5 15.0
2018-Jan-21 07:55 180 15.0
2018-Jan-21 07:50 124 0 gusting 6 14.4
2018-Jan-21 07:45 022 1 gusting 4 14.4
2018-Jan-21 07:40 147 0 gusting 5 15.0
2018-Jan-21 07:35 112 0 gusting 5 15.0
2018-Jan-21 07:30 180 1 gusting 5 15.0
2018-Jan-21 07:25 180 2 gusting 6 15.0
2018-Jan-21 07:20 112 15.0
2018-Jan-21 07:15 112 14.4
2018-Jan-21 07:10 112 14.4
2018-Jan-21 07:05 122 14.4
2018-Jan-21 07:00 090 6 gusting 14 14.4
2018-Jan-21 06:55 032 0 gusting 7 14.4
2018-Jan-21 06:50 022 3 gusting 6 14.4
2018-Jan-21 06:45 090 14.4
2018-Jan-21 06:40 022 13.9
2018-Jan-21 06:35 022 13.9
2018-Jan-21 06:30 022 0 gusting 6 13.9
2018-Jan-21 06:25 022 13.9
2018-Jan-21 06:20 022 13.9
2018-Jan-21 06:15 022 13.9
2018-Jan-21 06:10 022 13.9
2018-Jan-21 06:05 022 13.9
2018-Jan-21 06:00 022 13.9
2018-Jan-21 05:55 022 13.9
2018-Jan-21 05:50 022 13.9
2018-Jan-21 05:45 022 13.9
2018-Jan-21 05:40 089 13.9
2018-Jan-21 05:35 090 1 gusting 5 13.9
2018-Jan-21 05:30 090 13.9
2018-Jan-21 05:25 022 13.9
2018-Jan-21 05:20 022 13.9
2018-Jan-21 05:15 022 13.9
2018-Jan-21 05:10 022 14.4
2018-Jan-21 05:05 022 14.4
2018-Jan-21 05:00 022 14.4
2018-Jan-21 04:55 022 14.4
2018-Jan-21 04:50 022 14.4
2018-Jan-21 04:45 022 14.4
2018-Jan-21 04:40 022 14.4
2018-Jan-21 04:35 022 14.4
2018-Jan-21 04:30 146 0 gusting 6 14.4
2018-Jan-21 04:25 123 14.4
2018-Jan-21 04:20 180 14.4
2018-Jan-21 04:15 112 14.4
2018-Jan-21 04:10 022 14.4
2018-Jan-21 04:05 180 0 gusting 4 14.4
2018-Jan-21 04:00 180 14.4
2018-Jan-21 03:55 180 14.4
2018-Jan-21 03:50 180 14.4
2018-Jan-21 03:45 180 1 gusting 2 14.4
2018-Jan-21 03:40 180 14.4
2018-Jan-21 03:35 180 14.4
2018-Jan-21 03:30 180 14.4
2018-Jan-21 03:25 180 0 gusting 2 14.4
2018-Jan-21 03:20 180 14.4
2018-Jan-21 03:15 180 0 gusting 2 14.4
2018-Jan-21 03:10 180 14.4
2018-Jan-21 03:05 180 0 gusting 2 14.4
2018-Jan-21 03:00 180 0 gusting 5 14.4
2018-Jan-21 02:55 090 0 gusting 4 14.4
2018-Jan-21 02:50 160 4 gusting 8 14.4
2018-Jan-21 02:45 080 14.4
2018-Jan-21 02:40 180 14.4
2018-Jan-21 02:35 180 0 gusting 5 14.4
2018-Jan-21 02:30 180 0 gusting 6 14.4
2018-Jan-21 02:25 180 0 gusting 6 14.4
2018-Jan-21 02:20 180 2 gusting 6 14.4
2018-Jan-21 02:15 180 1 gusting 6 13.9
2018-Jan-21 02:10 180 1 gusting 5 13.9
2018-Jan-21 02:05 180 1 gusting 8 13.9
2018-Jan-21 02:00 180 0 gusting 5 13.9
2018-Jan-21 01:55 180 1 gusting 6 13.9
2018-Jan-21 01:50 180 0 gusting 2 13.9
2018-Jan-21 01:45 180 13.9
2018-Jan-21 01:40 112 14.4
2018-Jan-21 01:35 112 13.9
2018-Jan-21 01:30 090 14.4
2018-Jan-21 01:25 180 14.4
2018-Jan-21 01:20 146 14.4
2018-Jan-21 01:15 112 14.4
2018-Jan-21 01:10 112 14.4
2018-Jan-21 01:05 159 0 gusting 5 14.4
2018-Jan-21 01:00 180 14.4
2018-Jan-21 00:55 059 4 gusting 6 14.4
2018-Jan-21 00:50 167 0 gusting 4 14.4
2018-Jan-21 00:45 180 0 gusting 7 14.4
2018-Jan-21 00:40 180 14.4
2018-Jan-21 00:35 180 14.4
2018-Jan-21 00:30 180 14.4
2018-Jan-21 00:25 112 14.4
2018-Jan-21 00:20 180 0 gusting 2 14.4
2018-Jan-21 00:15 180 14.4
2018-Jan-21 00:10 180 0 gusting 7 14.4
2018-Jan-21 00:05 090 14.4
2018-Jan-21 00:00 022 0 gusting 4 14.4
2018-Jan-20 23:55 106 1 gusting 6 14.4
2018-Jan-20 23:50 180 1 gusting 6 14.4
2018-Jan-20 23:45 090 14.4
2018-Jan-20 23:40 040 0 gusting 10 14.4
2018-Jan-20 23:35 022 1 gusting 5 14.4
2018-Jan-20 23:30 180 14.4
2018-Jan-20 23:25 180 14.4
2018-Jan-20 23:20 090 0 gusting 6 14.4
2018-Jan-20 23:15 022 0 gusting 5 14.4
2018-Jan-20 23:10 180 0 gusting 2 14.4
2018-Jan-20 23:05 022 14.4
2018-Jan-20 23:00 022 14.4
2018-Jan-20 22:55 022 14.4
2018-Jan-20 22:50 180 14.4
2018-Jan-20 22:45 117 0 gusting 6 14.4
2018-Jan-20 22:40 022 14.4
2018-Jan-20 22:35 022 0 gusting 6 14.4
2018-Jan-20 22:30 090 0 gusting 13 14.4
2018-Jan-20 22:25 042 5 gusting 8 14.4
2018-Jan-20 22:20 022 14.4
2018-Jan-20 22:15 022 1 gusting 6 14.4
2018-Jan-20 22:10 112 14.4
2018-Jan-20 22:05 073 5 gusting 13 14.4
2018-Jan-20 22:00 028 1 gusting 12 14.4
2018-Jan-20 21:55 112 14.4
2018-Jan-20 21:50 161 1 gusting 6 14.4
2018-Jan-20 21:45 180 14.4
2018-Jan-20 21:40 112 14.4
2018-Jan-20 21:35 112 14.4
2018-Jan-20 21:30 043 0 gusting 5 15.0
2018-Jan-20 21:25 022 6 gusting 13 14.4
2018-Jan-20 21:20 091 4 gusting 7 14.4
2018-Jan-20 21:15 022 0 gusting 6 14.4
2018-Jan-20 21:10 022 1 gusting 8 15.0
2018-Jan-20 21:05 157 6 gusting 11 15.0
2018-Jan-20 21:00 180 15.0
2018-Jan-20 20:55 180 1 gusting 6 15.0
2018-Jan-20 20:50 022 0 gusting 2 15.0
2018-Jan-20 20:45 022 0 gusting 8 15.0
2018-Jan-20 20:40 101 15.0
2018-Jan-20 20:35 025 0 gusting 10 15.0
2018-Jan-20 20:30 041 0 gusting 11 15.0
2018-Jan-20 20:25 049 0 gusting 6 15.0
2018-Jan-20 20:20 147 0 gusting 4 15.0
2018-Jan-20 20:15 022 15.0
2018-Jan-20 20:10 022 15.0
2018-Jan-20 20:05 090 3 gusting 7 15.0
2018-Jan-20 20:00 174 0 gusting 4 15.0
2018-Jan-20 19:55 112 15.0
2018-Jan-20 19:50 022 0 gusting 6 15.0
2018-Jan-20 19:45 022 4 gusting 7 15.0
2018-Jan-20 19:40 034 1 gusting 7 15.0
2018-Jan-20 19:35 106 1 gusting 12 15.0
2018-Jan-20 19:30 022 15.0
2018-Jan-20 19:25 180 0 gusting 2 15.0
2018-Jan-20 19:20 022 15.0
2018-Jan-20 19:15 143 6 gusting 10 15.0
2018-Jan-20 19:10 041 15.0
2018-Jan-20 19:05 180 15.0
2018-Jan-20 19:00 135 0 gusting 10 15.0
2018-Jan-20 18:55 022 1 gusting 13 15.0
2018-Jan-20 18:50 180 0 gusting 5 15.0
2018-Jan-20 18:45 090 2 gusting 6 15.0
2018-Jan-20 18:40 022 15.0
2018-Jan-20 18:35 022 15.0
2018-Jan-20 18:30 022 1 gusting 7 15.0
2018-Jan-20 18:25 057 0 gusting 8 15.0
2018-Jan-20 18:20 027 15.0
2018-Jan-20 18:15 022 15.0
2018-Jan-20 18:10 112 0 gusting 2 15.0
2018-Jan-20 18:05 022 0 gusting 6 15.0
2018-Jan-20 18:00 027 0 gusting 5 15.0
2018-Jan-20 17:55 022 15.0
2018-Jan-20 17:50 022 15.0
2018-Jan-20 17:45 090 15.0
2018-Jan-20 17:40 062 0 gusting 5 15.0
2018-Jan-20 17:35 022 0 gusting 2 15.0
2018-Jan-20 17:30 022 15.0
2018-Jan-20 17:25 180 0 gusting 6 15.0
2018-Jan-20 17:20 022 15.0
2018-Jan-20 17:15 022 15.0
2018-Jan-20 17:10 112 15.0
2018-Jan-20 17:05 112 15.0
2018-Jan-20 17:00 090 1 gusting 6 15.0
2018-Jan-20 16:55 022 15.0
2018-Jan-20 16:50 022 0 gusting 5 15.0
2018-Jan-20 16:45 090 15.0
2018-Jan-20 16:40 112 15.0
2018-Jan-20 16:35 022 15.0
2018-Jan-20 16:30 022 2 gusting 7 15.0
2018-Jan-20 16:25 108 0 gusting 4 15.0
2018-Jan-20 16:20 022 15.0
2018-Jan-20 16:15 022 15.0
2018-Jan-20 16:10 022 15.0
2018-Jan-20 16:05 022 15.0
2018-Jan-20 16:00 022 15.0
2018-Jan-20 15:55 090 0 gusting 5 15.0
2018-Jan-20 15:50 022 15.0
2018-Jan-20 15:45 022 2 gusting 5 15.0
2018-Jan-20 15:40 090 15.0
2018-Jan-20 15:35 056 0 gusting 2 15.0
2018-Jan-20 15:30 022 15.6
2018-Jan-20 15:25 022 15.0
2018-Jan-20 15:20 026 2 gusting 6 15.6
2018-Jan-20 15:15 180 15.6
2018-Jan-20 15:10 023 0 gusting 1 15.6
2018-Jan-20 15:05 022 15.6
2018-Jan-20 15:00 022 15.6
2018-Jan-20 14:55 022 15.6
2018-Jan-20 14:50 180 15.6
2018-Jan-20 14:45 175 15.6
2018-Jan-20 14:40 022 15.6
2018-Jan-20 14:35 022 15.6
2018-Jan-20 14:30 022 15.6
2018-Jan-20 14:25 022 15.6
2018-Jan-20 14:20 022 15.6
2018-Jan-20 14:15 112 16.1
2018-Jan-20 14:10 022 16.1
2018-Jan-20 14:05 162 16.1
2018-Jan-20 14:00 101 16.1
2018-Jan-20 13:55 022 0 gusting 4 16.1
2018-Jan-20 13:50 112 16.1
2018-Jan-20 13:45 101 16.1
2018-Jan-20 13:40 180 16.1
2018-Jan-20 13:35 090 16.1
2018-Jan-20 13:30 090 16.1
2018-Jan-20 13:25 090 16.7
2018-Jan-20 13:20 090 16.7
2018-Jan-20 13:15 090 16.7
2018-Jan-20 13:10 090 1 gusting 8 16.7
2018-Jan-20 13:05 022 16.7
2018-Jan-20 13:00 022 0 gusting 6 16.7
2018-Jan-20 12:55 022 16.7
2018-Jan-20 12:50 022 16.7
2018-Jan-20 12:45 022 16.7
2018-Jan-20 12:40 090 0 gusting 6 17.2
2018-Jan-20 12:35 090 1 gusting 7 17.2
2018-Jan-20 12:30 112 17.2
2018-Jan-20 12:25 112 0 gusting 6 17.2
2018-Jan-20 12:20 112 17.2
2018-Jan-20 12:15 090 1 gusting 6 17.2
2018-Jan-20 12:10 090 17.8
2018-Jan-20 12:05 065 1 gusting 10 17.8
2018-Jan-20 12:00 112 17.8
2018-Jan-20 11:55 093 2 gusting 6 17.8
2018-Jan-20 11:50 112 17.8
2018-Jan-20 11:45 180 17.8
2018-Jan-20 11:40 180 17.8
2018-Jan-20 11:35 180 0 gusting 5 17.2
2018-Jan-20 11:30 097 17.2
2018-Jan-20 11:25 180 17.2
2018-Jan-20 11:20 022 17.2
2018-Jan-20 11:15 022 17.2
2018-Jan-20 11:10 022 2 gusting 5 17.2
2018-Jan-20 11:05 022 0 gusting 5 17.2
2018-Jan-20 11:00 090 0 gusting 6 17.2
2018-Jan-20 10:55 180 1 gusting 4 17.2
2018-Jan-20 10:50 022 17.2
2018-Jan-20 10:45 022 16.7
2018-Jan-20 10:40 022 16.7
2018-Jan-20 10:35 112 0 gusting 6 16.7
2018-Jan-20 10:30 022 16.7
2018-Jan-20 10:25 022 16.7
2018-Jan-20 10:20 180 0 gusting 2 16.7
2018-Jan-20 10:15 180 16.1
2018-Jan-20 10:10 180 16.1
2018-Jan-20 10:05 180 16.1
2018-Jan-20 10:00 165 0 gusting 2 16.1